Stations météo

réclame
Mon MeteoGroup
Edinburgh/Royal Botanic Garden , Grande-Bretagne (99180): Température de l'air & dewpoint: 18.11.2020 03:00:00 - 24.11.2020 03:00:00 (GMT)Edinburgh/Royal Botanic Garden , Grande-Bretagne (99180): Température de l'air -20cm & Température de l'air -100cm: 18.11.2020 03:00:00 - 24.11.2020 03:00:00 (GMT)Edinburgh/Royal Botanic Garden , Grande-Bretagne (99180): Quantités de précipitations: 18.11.2020 03:00:00 - 24.11.2020 03:00:00 (GMT)
Date & Time tt [°C] td [°C] tt -20cm [°C] tt -100cm [°C] rr [mm]
24.11.2020 03:00:00 - - - - -
24.11.2020 02:00:00 11,1 9,8 - - 0,0
24.11.2020 01:00:00 11,1 9,6 - - 0,0
24.11.2020 00:00:00 11,6 9,8 - - 0,0
23.11.2020 23:00:00 11,7 9,9 - - 0,0
23.11.2020 22:00:00 11,5 10,1 - - 0,6
23.11.2020 21:00:00 11,3 9,9 - - 0,6
23.11.2020 20:00:00 11,1 9,7 - - 0,4
23.11.2020 19:00:00 10,2 8,9 - - 0,2
23.11.2020 18:00:00 10,7 8,5 - - 0,0
23.11.2020 17:00:00 10,5 7,7 - - 0,0
23.11.2020 16:00:00 10,2 7,2 - - 0,0
23.11.2020 15:00:00 10,3 7,0 - - 0,0
23.11.2020 14:00:00 9,7 5,6 - - 0,0
23.11.2020 13:00:00 9,3 5,0 - - 0,0
23.11.2020 12:00:00 8,9 4,1 - - 0,0
23.11.2020 11:00:00 8,4 4,4 - - 0,0
23.11.2020 10:00:00 6,9 3,3 - - 0,0
23.11.2020 09:00:00 5,9 3,3 8,0 9,9 0,0
23.11.2020 08:00:00 6,1 3,3 - - 0,2
23.11.2020 07:00:00 6,6 3,7 - - 0,0
23.11.2020 06:00:00 6,6 4,0 - - 0,0
23.11.2020 05:00:00 6,1 3,9 - - 0,0
23.11.2020 04:00:00 6,1 4,1 - - 0,0
23.11.2020 03:00:00 6,1 4,2 - - 0,0
23.11.2020 02:00:00 5,8 4,0 - - 0,0
23.11.2020 01:00:00 5,2 3,6 - - 0,0
23.11.2020 00:00:00 4,7 3,4 - - 0,0
22.11.2020 23:00:00 4,3 2,9 - - 0,0
22.11.2020 22:00:00 4,8 3,0 - - 0,0
22.11.2020 21:00:00 5,7 3,5 - - 0,0
22.11.2020 20:00:00 5,1 2,6 - - 0,0
22.11.2020 19:00:00 5,1 2,9 - - 0,0
22.11.2020 18:00:00 5,7 3,8 - - 0,0
22.11.2020 17:00:00 6,0 3,5 - - 0,0
22.11.2020 16:00:00 6,3 4,1 - - 0,0
22.11.2020 15:00:00 6,7 3,3 - - 0,0
22.11.2020 14:00:00 7,1 3,9 - - 0,0
22.11.2020 13:00:00 6,9 4,5 - - 0,6
22.11.2020 12:00:00 8,0 4,3 - - 0,0
22.11.2020 11:00:00 7,5 3,9 - - 0,0
22.11.2020 10:00:00 7,0 3,6 - - 0,0
22.11.2020 09:00:00 5,3 2,6 8,7 10,0 0,0
22.11.2020 08:00:00 5,0 2,3 - - 0,0
22.11.2020 07:00:00 5,3 2,4 - - 0,0
22.11.2020 06:00:00 5,5 2,4 - - 0,0
22.11.2020 05:00:00 6,1 3,0 - - 0,0
22.11.2020 04:00:00 5,7 3,0 - - 0,0
22.11.2020 03:00:00 5,6 2,4 - - 0,2
22.11.2020 02:00:00 6,6 2,6 - - 0,0
22.11.2020 01:00:00 6,2 2,9 - - 0,0
22.11.2020 00:00:00 5,9 2,8 - - 0,0
21.11.2020 23:00:00 6,5 3,1 - - 0,0
21.11.2020 22:00:00 6,3 3,3 - - 0,0
21.11.2020 21:00:00 6,3 3,6 - - 0,0
21.11.2020 20:00:00 7,0 3,5 - - 0,0
21.11.2020 19:00:00 6,7 3,8 - - 0,0
21.11.2020 18:00:00 7,0 3,9 - - 0,0
21.11.2020 17:00:00 7,0 3,6 - - 0,0
21.11.2020 16:00:00 7,4 4,4 - - 0,0
21.11.2020 15:00:00 7,5 5,1 - - 0,2
21.11.2020 14:00:00 7,7 5,7 - - 1,0
21.11.2020 13:00:00 8,9 5,5 - - 0,0
21.11.2020 12:00:00 8,2 5,4 - - 1,2
21.11.2020 11:00:00 9,3 6,7 - - 0,0
21.11.2020 10:00:00 8,7 6,4 - - 0,0
21.11.2020 09:00:00 8,7 6,6 8,7 10,0 0,0
21.11.2020 08:00:00 8,5 6,3 - - 0,0
21.11.2020 07:00:00 8,2 6,2 - - 0,0
21.11.2020 06:00:00 8,0 5,9 - - 0,0
21.11.2020 05:00:00 8,2 6,9 - - 0,0
21.11.2020 04:00:00 9,5 8,6 - - 0,8
21.11.2020 03:00:00 11,9 9,6 - - 0,0
21.11.2020 02:00:00 11,5 9,5 - - 0,0
21.11.2020 01:00:00 11,4 9,9 - - 0,0
21.11.2020 00:00:00 12,1 8,9 - - 0,0
20.11.2020 23:00:00 11,6 9,7 - - 0,0
20.11.2020 22:00:00 11,6 9,8 - - 0,0
20.11.2020 21:00:00 11,9 9,7 - - 0,0
20.11.2020 20:00:00 12,1 9,8 - - 0,0
20.11.2020 19:00:00 12,4 9,8 - - 0,0
20.11.2020 18:00:00 11,8 9,6 - - 0,0
20.11.2020 17:00:00 12,2 10,0 - - 0,0
20.11.2020 16:00:00 11,9 9,8 - - 0,0
20.11.2020 15:00:00 12,1 9,8 - - 0,0
20.11.2020 14:00:00 11,5 9,6 - - 0,0
20.11.2020 13:00:00 8,9 8,0 - - 0,0
20.11.2020 12:00:00 8,4 7,3 - - 0,4
20.11.2020 11:00:00 7,9 6,8 - - 0,0
20.11.2020 10:00:00 6,9 5,4 - - 0,0
20.11.2020 09:00:00 6,0 4,3 8,7 10,2 0,0
20.11.2020 08:00:00 5,6 3,7 - - 0,0
20.11.2020 07:00:00 5,2 3,3 - - 0,0
20.11.2020 06:00:00 4,5 2,4 - - 0,0
20.11.2020 05:00:00 3,9 2,0 - - 0,0
20.11.2020 04:00:00 3,2 1,1 - - 0,0
20.11.2020 03:00:00 3,2 1,4 - - 0,0
20.11.2020 02:00:00 2,7 1,3 - - 0,0
20.11.2020 01:00:00 2,4 0,9 - - 0,0
20.11.2020 00:00:00 1,9 1,0 - - 0,0
19.11.2020 23:00:00 0,6 -0,4 - - 0,0
19.11.2020 22:00:00 0,4 -0,7 - - 0,0
19.11.2020 21:00:00 0,0 -1,4 - - 0,0
19.11.2020 20:00:00 0,7 -1,3 - - 0,0
19.11.2020 19:00:00 1,2 -1,1 - - 0,0
19.11.2020 18:00:00 1,6 -1,1 - - 0,0
19.11.2020 17:00:00 3,2 -1,5 - - 0,0
19.11.2020 16:00:00 4,3 -1,8 - - 0,0
19.11.2020 15:00:00 5,3 -2,1 - - 0,0
19.11.2020 14:00:00 6,8 -0,6 - - 0,0
19.11.2020 13:00:00 6,2 0,1 - - 0,0
19.11.2020 12:00:00 5,9 -0,4 - - 0,0
19.11.2020 11:00:00 5,2 -1,2 - - 0,0
19.11.2020 10:00:00 4,2 -2,0 - - 0,0
19.11.2020 09:00:00 3,8 -2,1 9,7 10,2 0,0
19.11.2020 08:00:00 4,3 -2,1 - - 0,0
19.11.2020 07:00:00 4,2 -1,5 - - 0,0
19.11.2020 06:00:00 4,8 -1,1 - - 0,0
19.11.2020 05:00:00 5,5 -0,5 - - 0,0
19.11.2020 04:00:00 6,2 0,4 - - 0,0
19.11.2020 03:00:00 7,1 2,3 - - 0,0
19.11.2020 02:00:00 7,2 2,9 - - 0,2
19.11.2020 01:00:00 7,2 4,9 - - 0,0
19.11.2020 00:00:00 7,4 5,9 - - 0,0
18.11.2020 23:00:00 7,4 6,0 - - 0,0
18.11.2020 22:00:00 7,4 6,2 - - 0,2
18.11.2020 21:00:00 7,4 6,0 - - 0,0
18.11.2020 20:00:00 6,6 5,4 - - 1,0
18.11.2020 19:00:00 6,8 5,5 - - 1,8
18.11.2020 18:00:00 6,6 4,9 - - 0,4
18.11.2020 17:00:00 6,8 4,8 - - 0,2
18.11.2020 16:00:00 7,7 4,5 - - 0,0
18.11.2020 15:00:00 8,4 5,9 - - 0,4
18.11.2020 14:00:00 9,6 8,2 - - 0,6
18.11.2020 13:00:00 10,6 9,4 - - 0,6
18.11.2020 12:00:00 11,5 9,9 - - 1,4
18.11.2020 11:00:00 13,8 11,0 - - 0,0
18.11.2020 10:00:00 14,3 9,9 - - 0,0
18.11.2020 09:00:00 13,9 10,0 9,7 10,2 0,0
18.11.2020 08:00:00 14,0 9,8 - - 0,0
18.11.2020 07:00:00 13,6 9,8 - - 0,2
18.11.2020 06:00:00 14,0 10,1 - - 0,0
18.11.2020 05:00:00 13,7 10,1 - - 0,0
18.11.2020 04:00:00 13,5 9,8 - - 0,0
18.11.2020 03:00:00 13,5 9,7 - - 0,0

tt = Température de l'air
td = dewpoint
tt -20cm = Température de l'air -20cm
tt -100cm = Température de l'air -100cm
rr = Quantités de précipitations

stations d'obs. à proximité